INTELSAT 32E (IS-32E) (41945 NORAD) Tracking and Keplerian Element Data

This shows tracking and keplerian element data for the satellite.

Feedback or suggestion? Click here.




ElementValue
Catalog41945
NameINTELSAT 32E (IS-32E)
Epoch Orbit649
Epoch Day321.96173536
Epoch Year2018
RAAN290.673
Inclination0.0215
Eccentricity6.26E-05
Argument of Perigee233.8605
Mean Anonmoly195.4684
Mean Motion1.00270623
Decay Rate-2.62E-06
L11 41945U 17007B 18321.96173536 -.00000262 00000-0 00000+0 0 9993
L22 41945 0.0215 290.6730 0000626 233.8605 195.4684 1.00270623 6498

Live tracking and technical data element details for INTELSAT 32E (IS-32E) (NORAD 41945). INTELSAT 32E (IS-32E) can be tracked NOW for your location showing map with azimuth and elevation plus other details from your city location.

Track the satellite on the map from your city or location and see movement details for azimuth, elevation, latitude, longitude, range, height, and movement on the map or in text.







IsCatalogInMostPopularTable: catalog: 41945, numindb: 135
Update: records affected: 1



GetName: 41945 INTELSAT 32E (IS-32E)

Hit Count: updated at: Mon, 19 Nov 2018 13:49:05 GMT